Location: Devargunta
(16.7631°N, 80.9077°E)
Time: 15:46:51
(UTC+00:00)

Cosmos 1939 Rocket - Pass Details

Date: 19 January 2021
Orbit: 530 x 585 km, 97.4° (Epoch: 25 February)

Event Time Altitude Azimuth Distance (km) Brightness Sun altitude
Rises 12:45:09 0° 164° (SSE) 2,794 6.5 -5.3°
Reaches altitude 10° 12:47:19 10° 162° (SSE) 1,898 5.6 -5.7°
Maximum altitude 12:51:25 71° 78° (ENE) 619 2.9 -6.7°
Drops below altitude 10° 12:55:31 10° 355° (N) 1,898 5.4 -7.6°
Sets 12:57:41 0° 353° (N) 2,794 6.3 -8.1°
